PST,Max TemperatureF,Mean TemperatureF,Min TemperatureF,Max Dew PointF,MeanDew PointF,Min DewpointF,Max Humidity, Mean Humidity, Min Humidity, Max Sea Level PressureIn, Mean Sea Level PressureIn, Min Sea Level PressureIn, Max VisibilityMiles, Mean VisibilityMiles, Min VisibilityMiles, Max Wind SpeedMPH, Mean Wind SpeedMPH, Max Gust SpeedMPH,PrecipitationIn, CloudCover, Events, WindDirDegrees
2012-11-1,64,60,57,61,58,54,100,89,77,30.07,30.03,30.00,15,12,7,9,5,,0.00,4,Rain,330
2012-11-2,66,55,44,54,50,45,100,76,59,30.10,30.06,30.03,15,14,10,12,6,,0.00,2,,349
2012-11-3,73,60,46,57,52,45,93,70,50,30.15,30.11,30.08,20,14,10,12,6,,0.00,1,,347
2012-11-4,78,64,50,61,56,48,94,72,50,30.21,30.16,30.12,15,15,15,10,5,,0.00,0,,344
2012-11-5,80,70,59,63,57,50,88,65,45,30.16,30.07,30.03,20,12,10,9,6,,0.00,0,,338
2012-11-6,77,62,48,61,55,48,100,67,47,30.08,30.03,29.99,15,14,10,13,7,,0.00,0,,354
2012-11-7,64,60,55,57,55,52,94,86,77,30.06,30.01,29.97,15,8,3,12,5,,0.00,4,,355
2012-11-8,62,56,50,50,45,43,87,68,48,29.98,29.94,29.91,15,12,8,14,8,21,0.00,6,Rain,256
2012-11-9,57,50,44,45,41,34,93,67,41,29.98,29.95,29.92,15,15,15,16,7,,0.00,3,,332
2012-11-10,60,53,46,43,41,37,87,59,45,30.21,30.13,30.08,15,15,15,16,10,,0.00,3,,321
2012-11-11,60,50,41,46,41,37,87,64,45,30.38,30.35,30.33,15,12,10,9,7,,0.00,2,,359
2012-11-12,62,52,42,45,41,39,87,61,45,30.38,30.31,30.26,20,20,20,9,6,,0.00,0,,338
2012-11-13,66,52,39,48,42,36,87,61,40,30.24,30.15,30.09,20,20,20,10,5,,0.00,3,,10
2012-11-14,69,56,44,50,46,41,87,66,46,30.12,30.06,30.02,20,20,20,10,5,,0.00,3,,348
2012-11-15,66,54,41,52,48,39,93,71,52,30.02,29.99,29.95,20,12,10,9,5,,0.00,6,,324
2012-11-16,66,60,55,57,55,50,88,81,64,29.98,29.93,29.87,15,12,10,14,9,,0.00,7,Rain,135
2012-11-17,64,62,57,61,56,52,100,85,68,29.97,29.92,29.85,20,10,5,12,9,,0.00,6,Rain,204
2012-11-18,62,56,51,52,49,46,94,73,55,30.16,30.13,30.11,15,14,10,9,6,,0.00,5,,25
2012-11-19,68,59,50,50,47,45,82,61,46,30.23,30.20,30.18,20,17,10,13,8,,0.00,4,,159
2012-11-20,66,62,59,57,55,54,82,76,68,30.15,30.09,30.05,15,12,7,16,14,,0.00,7,,149
2012-11-21,64,58,51,54,49,46,82,72,67,30.20,30.16,30.11,20,13,3,13,5,,0.00,3,Rain,325
2012-11-22,64,53,42,52,47,43,100,71,49,30.26,30.21,30.18,20,20,20,13,7,,0.00,1,,333
2012-11-23,68,56,44,54,49,45,100,73,52,30.26,30.21,30.16,,,,9,4,,0.00,0,,28
2012-11-24,68,55,42,54,49,41,94,78,52,30.18,30.10,30.04,15,14,10,10,3,,0.00,0,,346
2012-11-25,57,52,44,54,49,32,100,91,44,30.03,29.98,29.94,7,4,0,6,4,,0.00,3,Fog,300
2012-11-26,60,50,41,50,46,41,100,100,100,30.07,30.04,30.01,10,5,0,10,4,,0.00,3,Fog,329
2012-11-27,62,56,50,54,51,48,94,77,63,30.11,30.05,30.01,15,11,3,9,7,,0.00,6,,122
2012-11-28,64,60,55,59,54,50,94,81,68,30.02,29.94,29.86,10,8,2,25,16,34,0.00,5,Rain,176
2012-11-29,62,60,59,59,55,52,88,79,68,30.04,29.99,29.92,20,14,5,21,14,25,0.00,7,Rain,155
2012-11-30,64,62,59,61,58,54,100,89,73,30.01,29.92,29.84,10,7,3,14,10,,0.00,8,Rain,162